(128686) = 2003 KZ35 = 2004 RE80

Discovered at Socorro on 2004-09-07 by LINEAR.

Orbit

Orbit type: Main Belt

Note: WebGL enabled browser required.

epoch2022-01-21.0
epoch JD2459600.5
perihelion date2020-11-30.96063
perihelion JD2459184.46063
argument of perihelion (°)234.24516
ascending node (°)174.98795
inclination (°)3.58598
eccentricity0.0828436
perihelion distance (AU)2.2651727
Tisserand w.r.t. Jupiter3.5
ΔV w.r.t. Earth (km/sec)9.4
semimajor axis (AU)2.4697781
mean anomaly (°)105.64559
mean daily motion (°/day)0.25393170
aphelion distance (AU)2.674
period (years)3.88
P-vector [x]0.65284424
P-vector [y]0.71361379
P-vector [z]0.25406644
Q-vector [x]-0.75747247
Q-vector [y]0.61259214
Q-vector [z]0.22575724
absolute magnitude16.68
phase slope0.15
uncertainty0
referenceMPO 693918
observations used649
oppositions17
arc length (days)10359
first opposition used1993
last opposition used2022
residual rms (arc-secs)0.69
perturbers coarse indicatorM-v
perturbers precise indicator003Ek
first observation date used1993-12-14.0
last observation date used2022-04-25.0
computer namePan
JD of orbit computation2456819.553848
perihelion JD uncertainty (days)1.1881E-04
argument of perihelion uncertainty (°)6.3099E-05
ascending node uncertainty (°)5.5260E-05
inclination uncertainty (°)4.8600E-06
eccentricity uncertainty 3.2105E-08
perihelion distance uncertainty (AU)7.7154E-08
Minimum Orbit Intersection Distances (in AU)
for orbit epoch: 2459600.5, reference: E2022-B04
Mercury1.94612
Venus1.54264
Earth1.2773
Mars0.75345
Jupiter2.59886
Saturn6.74971
Uranus15.8217
Neptune27.5675

Observations

663 total observations over interval: 1993 12 14.23826 – 2022 05 27.190971
These data are available for download (format description).

Date (UT) J2000 RA J2000 Dec Magn Location Ref
1993 12 14.23826 04 13 57.07 +15 06 31.5 19.2 V 691 – Steward Observatory, Kitt Peak-Spacewatch MPS 168169
1993 12 14.27266 04 13 55.28 +15 06 27.9   691 – Steward Observatory, Kitt Peak-Spacewatch MPS 168169
1993 12 14.30662 04 13 53.31 +15 06 24.3   691 – Steward Observatory, Kitt Peak-Spacewatch MPS 168169
2000 08 07.35790 21 06 38.80 -12 28 23.0 20.7   608 – Haleakala-AMOS MPS 157768
2000 08 07.36924 21 06 38.15 -12 28 26.8 20.2   608 – Haleakala-AMOS MPS 157768
2000 08 07.37999 21 06 37.49 -12 28 30.3 20.6   608 – Haleakala-AMOS MPS 157768
2002 01 09.27610 06 47 25.98 +17 09 58.2 20.1   704 – Lincoln Laboratory ETS, New Mexico MPS 115312
2002 01 09.29122 06 47 25.04 +17 09 58.9 19.9   704 – Lincoln Laboratory ETS, New Mexico MPS 115312
2002 01 09.30635 06 47 24.06 +17 10 00.6 19.5   704 – Lincoln Laboratory ETS, New Mexico MPS 115312
2002 01 09.32301 06 47 23.07 +17 10 02.6 19.7   704 – Lincoln Laboratory ETS, New Mexico MPS 115312
2003 04 29.35846 14 32 19.19 -10 47 24.7 20.5 V 691 – Steward Observatory, Kitt Peak-Spacewatch MPS 115257
2003 04 29.38615 14 32 17.63 -10 47 15.7 20.4 V 691 – Steward Observatory, Kitt Peak-Spacewatch MPS 115257
2003 04 29.41349 14 32 16.12 -10 47 06.7 20.9 V 691 – Steward Observatory, Kitt Peak-Spacewatch MPS 115257
2003 05 10.25601 14 22 34.13 -09 50 22.8 21.0 V 691 – Steward Observatory, Kitt Peak-Spacewatch MPS 115257
2003 05 10.28234 14 22 32.73 -09 50 15.3 20.8 V 691 – Steward Observatory, Kitt Peak-Spacewatch MPS 115257
2003 05 10.30844 14 22 31.32 -09 50 07.9 20.7 V 691 – Steward Observatory, Kitt Peak-Spacewatch MPS 115257
2003 05 29.26328 14 09 00.59 -08 37 51.0 21.5 V 691 – Steward Observatory, Kitt Peak-Spacewatch MPS 82425
2003 05 29.29032 14 08 59.67 -08 37 47.3 22.1 V 691 – Steward Observatory, Kitt Peak-Spacewatch MPS 82425
2003 05 29.31648 14 08 58.77 -08 37 43.1 22.1 V 691 – Steward Observatory, Kitt Peak-Spacewatch MPS 82425
2003 06 05.17192 14 05 54.71 -08 23 48.2 21.9 V 691 – Steward Observatory, Kitt Peak-Spacewatch MPS 82425
2003 06 05.19835 14 05 54.06 -08 23 45.9 21.5 V 691 – Steward Observatory, Kitt Peak-Spacewatch MPS 82425
2003 06 05.22510 14 05 53.40 -08 23 43.0 21.4 V 691 – Steward Observatory, Kitt Peak-Spacewatch MPS 82425
2004 08 10.22605 22 18 51.80 -07 25 39.9 19.4   704 – Lincoln Laboratory ETS, New Mexico MPS 114458
2004 08 10.23613 22 18 51.29 -07 25 42.5 20.0   704 – Lincoln Laboratory ETS, New Mexico MPS 114458
2004 08 10.24629 22 18 50.88 -07 25 45.7 20.1   704 – Lincoln Laboratory ETS, New Mexico MPS 114458
2004 08 10.25655 22 18 50.38 -07 25 48.8 19.8   704 – Lincoln Laboratory ETS, New Mexico MPS 114458
2004 08 10.26665 22 18 49.93 -07 25 51.9 19.8   704 – Lincoln Laboratory ETS, New Mexico MPS 114458
2004 08 22.34513 22 08 48.93 -08 39 07.5 19.4 V 691 – Steward Observatory, Kitt Peak-Spacewatch MPS 114458
2004 08 22.37366 22 08 47.38 -08 39 18.5 19.4 V 691 – Steward Observatory, Kitt Peak-Spacewatch MPS 114458
2004 08 22.40156 22 08 45.88 -08 39 29.1 19.4 V 691 – Steward Observatory, Kitt Peak-Spacewatch MPS 114458
2004 09 07.19242 21 55 33.48 -10 20 59.6 20.1   704 – Lincoln Laboratory ETS, New Mexico MPS 112892
2004 09 07.20370 21 55 32.87 -10 21 02.7 19.8   704 – Lincoln Laboratory ETS, New Mexico MPS 112892
2004 09 07.21498 21 55 32.36 -10 21 09.1 20.0   704 – Lincoln Laboratory ETS, New Mexico MPS 112892
2004 09 07.22625 21 55 31.86 -10 21 11.7 20.3   704 – Lincoln Laboratory ETS, New Mexico MPS 112892
2004 09 10.19253 21 53 21.41 -10 38 56.0 19.9 V 691 – Steward Observatory, Kitt Peak-Spacewatch MPS 112892
2004 09 10.26985 21 53 17.96 -10 39 23.2 19.7 V 691 – Steward Observatory, Kitt Peak-Spacewatch MPS 112892
2004 09 10.29752 21 53 16.73 -10 39 32.8 19.9 V 691 – Steward Observatory, Kitt Peak-Spacewatch MPS 112892
2004 09 16.86488 21 49 05.82 -11 15 35.5 19.6 V 941 – Observatorio Pla D'Arguines MPS 114458
2004 09 16.86716 21 49 05.74 -11 15 36.2 19.7 V 941 – Observatorio Pla D'Arguines MPS 114458
2004 09 16.87058 21 49 05.62 -11 15 37.2 19.6 V 941 – Observatorio Pla D'Arguines MPS 114458
2004 09 16.87400 21 49 05.49 -11 15 38.4 19.9 V 941 – Observatorio Pla D'Arguines MPS 114458
2004 09 16.87628 21 49 05.41 -11 15 39.1 19.8 V 941 – Observatorio Pla D'Arguines MPS 114458
2004 09 16.88198 21 49 05.22 -11 15 40.7 19.8 V 941 – Observatorio Pla D'Arguines MPS 114458
2004 09 17.90329 21 48 31.41 -11 20 48.0 20.7 R J87 – La Canada MPS 114458
2004 09 17.90927 21 48 31.26 -11 20 49.9 19.7 R J87 – La Canada MPS 114458
2004 09 17.91524 21 48 31.03 -11 20 51.6 20.3 R J87 – La Canada MPS 114458
2004 09 17.92121 21 48 30.74 -11 20 53.8 19.8 R J87 – La Canada MPS 114458
2004 09 17.92718 21 48 30.63 -11 20 55.6 19.9 R J87 – La Canada MPS 114458
2004 09 17.93297 21 48 30.32 -11 20 57.1 20.3 R J87 – La Canada MPS 114458
2004 09 17.93915 21 48 30.10 -11 20 58.6 20.3 R J87 – La Canada MPS 114458
2004 09 17.94080 21 48 30.00 -11 21 00.4 20.1 V 941 – Observatorio Pla D'Arguines MPS 114458
2004 09 17.94422 21 48 29.89 -11 21 01.4 20.0 V 941 – Observatorio Pla D'Arguines MPS 114458
2004 09 17.94516 21 48 29.92 -11 21 03.6 20.3 R J87 – La Canada MPS 114458
2004 09 17.94537 21 48 29.86 -11 21 01.7 19.8 V 941 – Observatorio Pla D'Arguines MPS 114458
2004 09 17.95116 21 48 29.74 -11 21 04.6 19.7 R J87 – La Canada MPS 114458
2004 09 17.95221 21 48 29.66 -11 21 03.8 20.0 V 941 – Observatorio Pla D'Arguines MPS 114458
2004 09 17.95714 21 48 29.56 -11 21 04.7 19.4 R J87 – La Canada MPS 114458
2004 09 17.96590 21 48 29.27 -11 21 07.5 19.8 V 941 – Observatorio Pla D'Arguines MPS 114458
2004 09 23.11713 21 46 04.03 -11 44 47.6 20.4 V 691 – Steward Observatory, Kitt Peak-Spacewatch MPS 114458
2004 09 23.14998 21 46 03.19 -11 44 56.2 20.2 V 691 – Steward Observatory, Kitt Peak-Spacewatch MPS 114458
2004 09 23.17632 21 46 02.52 -11 45 02.4 20.4 V 691 – Steward Observatory, Kitt Peak-Spacewatch MPS 114458
2005 12 25.31661 08 24 47.49 +14 00 52.0 19.6 R 699 – Lowell Observatory-LONEOS MPS 156581
2005 12 25.32754 08 24 47.03 +14 00 52.9   699 – Lowell Observatory-LONEOS MPS 156581
2005 12 25.33850 08 24 46.60 +14 00 54.9   699 – Lowell Observatory-LONEOS MPS 156581
2005 12 25.34943 08 24 46.13 +14 00 56.1   699 – Lowell Observatory-LONEOS MPS 156581
2005 12 27.39454 08 23 24.90 +14 04 36.7   691 – Steward Observatory, Kitt Peak-Spacewatch MPS 156581
2005 12 27.41192 08 23 24.14 +14 04 38.7   691 – Steward Observatory, Kitt Peak-Spacewatch MPS 156581
2005 12 27.42929 08 23 23.39 +14 04 40.5   691 – Steward Observatory, Kitt Peak-Spacewatch MPS 156581
2006 01 05.40806 08 16 14.39 +14 27 13.2 19.8 V 691 – Steward Observatory, Kitt Peak-Spacewatch MPS 157768
2006 01 05.42531 08 16 13.43 +14 27 16.3 19.8 V 691 – Steward Observatory, Kitt Peak-Spacewatch MPS 157768
2006 01 05.44262 08 16 12.51 +14 27 19.4 19.3 V 691 – Steward Observatory, Kitt Peak-Spacewatch MPS 157768
2006 01 09.38686 08 12 34.44 +14 40 05.1 19.9 V 691 – Steward Observatory, Kitt Peak-Spacewatch MPS 158966
2006 01 09.40418 08 12 33.42 +14 40 08.7 19.8 V 691 – Steward Observatory, Kitt Peak-Spacewatch MPS 158966
2006 01 09.42491 08 12 32.19 +14 40 13.0 19.7 V 691 – Steward Observatory, Kitt Peak-Spacewatch MPS 158966
2006 01 18.26713 08 03 47.26 +15 13 22.9 19.1 V 703 – Catalina Sky Survey MPS 159898
2006 01 18.27564 08 03 46.72 +15 13 25.1 18.9 V 703 – Catalina Sky Survey MPS 159898
2006 01 18.28419 08 03 46.33 +15 13 27.8 19.5 V 703 – Catalina Sky Survey MPS 159898
2006 01 18.29274 08 03 45.61 +15 13 28.3 19.7 V 703 – Catalina Sky Survey MPS 159898
2006 01 23.27800 07 58 43.95 +15 33 59.1 19.6   704 – Lincoln Laboratory ETS, New Mexico MPS 160428
2006 01 23.29100 07 58 43.06 +15 34 03.2 20.0   704 – Lincoln Laboratory ETS, New Mexico MPS 160428
2006 01 23.30431 07 58 42.12 +15 34 05.9 20.1   704 – Lincoln Laboratory ETS, New Mexico MPS 160428
2006 01 23.31721 07 58 41.37 +15 34 09.1 20.0   704 – Lincoln Laboratory ETS, New Mexico MPS 160428
2006 01 23.33010 07 58 40.61 +15 34 12.7 19.4   704 – Lincoln Laboratory ETS, New Mexico MPS 160428
2006 01 31.29762 07 51 01.29 +16 07 50.7 19.6 V G96 – Mt. Lemmon Survey MPS 161791
2006 01 31.30514 07 51 00.90 +16 07 52.5 19.6 V G96 – Mt. Lemmon Survey MPS 161791
